Wind_Speed
31 33 37 39 41 42 42 37 38 40 38 35 35 34 34 32 32 30 28 26 23 22 21 21 21 19 18 16 15 13 12 12 12 10 9 7 4 2 1 2 2 2 4 9
31 29 29 32 35 37 39 36 37 37 36 32 34 34 33 32 30 29 28 27 26 24 22 20 19 18 17 17 17 17 16 14 11 8 4 2 4 5 5 7 7 9 10 9
25 27 27 24 27 29 32 32 33 35 34 34 33 33 32 31 31 30 28 27 26 25 23 22 22 22 21 20 17 14 10 7 5 4 5 5 6 6 6 6 7 9 8 8
22 23 24 25 24 25 28 27 26 28 28 30 29 29 29 29 29 28 28 26 24 23 21 19 18 16 14 13 11 9 8 8 7 7 8 8 8 8 8 8 8 9 11 13
16 19 20 21 22 23 23 27 26 27 25 24 22 23 23 23 22 21 20 18 17 16 14 13 11 10 10 9 8 9 11 11 10 10 10 10 10 12 11 11 11 11 11 14
8 13 16 16 16 17 19 19 23 24 24 25 25 25 23 21 19 17 16 14 13 12 12 11 12 12 13 14 13 11 11 12 12 11 11 12 10 13 13 13 14 14 15 16
9 5 8 12 12 12 13 14 14 15 18 19 20 20 21 20 19 19 19 18 17 16 16 15 15 14 14 13 13 13 12 12 12 12 9 9 9 9 10 11 12 13 14 16
16 10 6 5 9 10 9 9 10 11 12 12 15 15 16 16 16 17 17 15 15 14 13 13 13 12 11 11 10 10 9 8 6 6 7 7 7 9 10 11 14 13 16 18
17 16 11 10 7 7 9 8 6 5 6 8 9 9 10 10 11 11 11 11 12 11 11 11 10 9 8 9 9 8 8 7 8 6 7 8 10 13 15 16 17 20 21 23
19 18 16 14 13 12 10 8 9 10 9 7 5 5 5 5 6 6 7 8 9 9 9 10 10 10 9 8 7 7 8 9 11 10 11 12 15 19 20 21 23 23 22 23
18 20 20 17 16 12 14 16 14 11 11 12 10 9 8 8 7 6 6 5 7 8 8 7 9 9 11 11 12 12 12 13 12 15 18 19 19 21 24 28 27 26 25 23
17 20 22 19 19 18 17 15 14 17 18 16 16 16 14 14 14 12 13 11 9 10 11 12 12 13 13 14 14 18 21 25 23 25 23 29 27 27 30 31 32 29 25 23
22 20 20 24 24 23 22 21 19 17 15 16 19 19 21 22 22 20 20 22 19 17 17 17 17 19 22 20 19 21 23 32 33 35 30 32 33 31 33 31 32 31 28 27
29 26 24 21 21 23 23 23 24 21 19 18 18 17 17 17 20 23 24 26 26 28 30 27 26 27 29 27 30 24 27 32 40 40 39 38 37 37 36 34 33 31 28 25
30 31 29 26 24 24 23 23 24 25 21 21 22 21 21 19 19 22 22 20 20 22 23 24 23 24 29 26 22 13 24 31 38 35 38 37 38 39 38 35 33 30 26 24
32 31 28 27 29 28 26 26 26 23 23 21 20 18 19 19 18 19 19 22 24 24 23 23 24 26 28 23 20 18 23 25 29 27 29 28 31 31 33 32 33 29 27 26
34 34 33 31 30 28 30 32 30 32 31 28 22 18 18 23 25 25 26 28 29 30 28 23 25 27 32 28 29 31 30 26 25 26 28 29 32 32 32 31 29 27 27 26
35 36 37 37 35 35 35 38 38 38 39 38 35 27 26 30 31 33 36 37 38 39 37 34 30 28 28 27 37 32 35 31 29 29 30 30 27 28 28 28 28 25 28 29
39 40 43 41 40 40 42 45 47 47 46 46 43 37 41 38 38 41 44 44 45 46 44 44 44 36 33 41 37 32 34 35 32 31 33 35 35 29 26 26 28 29 32 32
52 51 49 47 47 48 48 47 48 50 51 52 52 52 50 50 51 51 53 55 55 53 54 54 53 47 39 44 44 43 38 38 38 35 35 36 35 35 30 29 30 32 36 39
58 57 55 53 52 53 57 56 58 59 58 57 59 59 59 59 60 60 61 62 63 62 60 60 60 56 48 46 45 45 45 44 42 42 38 37 37 33 29 30 33 36 37 40
67 65 64 63 65 65 65 62 60 62 66 69 72 73 72 70 68 68 67 68 69 69 68 67 65 59 59 57 55 52 48 45 43 40 40 38 36 35 33 35 37 39 39 40
72 69 69 63 59 58 61 63 63 65 68 70 70 71 71 71 69 69 67 70 73 74 73 70 64 67 63 60 57 56 50 45 42 40 39 38 39 39 40 40 41 42 42 43
71 71 70 68 68 70 65 59 60 63 66 67 67 66 66 67 68 68 67 69 70 73 69 62 56 53 56 58 53 49 46 41 40 39 38 38 40 43 44 44 45 45 46 48
61 63 65 67 65 60 57 59 60 60 62 65 66 66 66 64 65 63 65 59 58 59 47 46 54 58 57 50 46 42 44 48 49 45 43 43 43 43 45 45 44 43 45 47
62 63 65 60 57 57 56 55 54 56 59 61 61 62 65 65 67 67 66 68 67 61 55 56 59 60 55 50 50 48 49 49 48 48 47 46 46 44 45 46 42 39 45 47
60 55 54 58 59 57 55 56 57 54 56 58 61 63 60 64 66 66 68 65 58 56 56 54 53 58 56 54 53 52 52 49 47 44 45 46 46 45 45 46 42 40 39 43
Wind_Direction
42 56 56 55 57 55 62 60 66 71 69 69 75 77 79 83 83 82 85 91 95 101 106 110 111 110 113 119 126 131 139 132 125 122 119 109 116 119 142 207 217 260 305 325
29 40 55 55 55 57 59 57 60 65 71 75 78 79 80 82 83 85 85 89 93 96 98 100 103 104 107 108 112 114 112 106 104 96 77 347 306 295 270 260 274 292 309 313
28 31 37 46 54 54 59 59 56 61 68 71 76 77 79 79 80 82 82 85 89 92 94 93 93 92 92 90 90 86 80 73 42 5 332 306 293 288 280 278 296 309 329 356
18 24 33 39 47 59 55 60 60 56 56 61 66 71 76 80 82 81 80 80 82 83 85 86 87 82 76 69 58 51 31 13 2 22 44 51 52 52 45 31 22 11 359 352
14 15 20 30 39 44 57 60 57 58 57 54 53 57 61 64 67 70 75 76 75 74 71 68 60 49 39 28 18 20 33 52 47 44 43 36 30 25 17 8 1 353 349 342
4 10 7 15 22 33 39 51 66 59 54 54 55 52 56 57 60 62 61 61 63 60 56 57 61 62 64 61 58 51 39 34 31 32 25 16 11 2 357 351 344 338 337 332
304 337 357 354 7 17 29 39 43 61 73 63 55 53 49 45 47 48 51 53 53 54 55 54 54 53 47 40 33 28 24 23 20 17 16 6 354 346 339 332 332 321 314 312
317 288 289 321 335 348 1 18 41 43 39 57 70 61 55 52 46 41 37 37 38 40 42 47 47 43 45 42 38 34 29 23 15 10 0 0 353 340 337 331 319 311 314 315
299 307 289 268 274 300 319 328 344 14 27 30 35 50 56 55 49 46 44 39 36 32 30 31 40 45 43 36 29 24 14 10 4 8 359 358 340 334 325 321 315 315 314 312
283 294 302 304 277 274 274 285 306 318 322 325 336 348 359 16 27 24 17 22 21 17 10 11 8 4 5 3 357 347 339 332 325 326 326 327 323 324 327 325 325 319 314 314
268 271 284 297 301 303 287 281 282 282 290 296 298 296 301 308 307 304 306 318 325 327 331 326 327 323 324 325 325 313 313 304 302 301 304 307 315 324 326 335 337 326 318 315
256 261 262 273 284 294 299 303 297 285 280 281 283 287 286 289 294 290 289 285 281 287 294 301 300 296 296 296 301 300 307 306 304 302 312 307 314 322 324 329 330 323 313 315
259 253 255 260 266 275 281 291 297 299 297 292 283 280 281 286 285 284 285 289 284 281 283 284 288 295 293 295 293 297 305 304 305 299 303 299 304 310 312 317 318 316 308 305
256 250 251 253 257 261 266 272 279 282 293 296 300 301 301 294 287 288 288 283 280 282 287 286 286 286 285 286 286 296 295 292 289 293 292 297 301 303 302 305 306 306 302 298
258 261 252 247 252 255 261 262 265 274 274 281 288 292 290 289 289 292 297 298 302 303 304 305 301 296 292 300 313 314 279 278 280 296 308 308 303 300 297 296 293 289 288 291
257 261 265 269 261 256 255 260 263 260 262 267 274 280 283 289 288 289 293 296 299 300 305 308 311 310 309 320 320 301 298 307 309 307 302 303 297 296 288 287 286 287 284 286
256 261 266 267 270 275 273 269 266 263 264 261 258 259 262 280 284 288 291 296 297 298 298 307 305 300 306 314 305 304 305 307 310 305 305 301 302 298 290 286 286 285 277 279
257 261 264 267 270 274 279 280 281 280 279 274 270 264 260 263 272 279 286 290 293 295 298 303 301 301 306 307 292 302 295 298 300 300 300 301 305 305 302 292 285 277 276 283
261 264 268 268 270 271 274 275 278 281 280 280 282 282 276 276 272 274 276 278 283 285 290 292 294 301 309 296 302 300 295 291 288 287 289 292 297 299 300 297 292 284 283 285
266 265 264 267 270 270 269 271 273 274 277 280 283 283 282 283 284 283 282 284 285 287 290 291 291 294 294 293 296 298 295 296 292 288 286 286 286 289 293 291 289 287 289 289
269 270 271 271 274 275 270 269 272 272 274 277 280 282 282 284 283 280 280 282 283 284 285 288 288 293 292 289 285 284 287 290 290 286 285 285 285 283 282 283 285 287 288 290
268 270 271 274 277 276 276 275 276 275 275 275 276 278 279 280 282 282 281 280 280 280 282 283 284 290 287 286 285 283 283 284 281 278 281 283 279 277 275 278 279 281 283 286
275 273 276 276 275 276 280 281 281 279 276 275 274 275 277 278 278 278 278 276 276 276 278 280 283 282 284 283 283 281 280 275 273 274 274 274 273 273 277 278 279 281 283 284
266 270 272 274 279 280 284 280 280 278 276 275 274 274 275 275 276 277 277 276 275 276 277 280 282 280 280 282 282 278 275 268 269 270 270 269 270 275 279 279 280 285 287 288
258 263 270 278 280 274 272 273 272 270 270 271 272 271 272 271 271 272 273 273 273 276 276 276 276 277 280 276 265 266 273 275 275 274 271 270 273 276 280 284 290 287 287 290
259 264 274 274 270 269 269 269 269 271 272 272 271 271 271 270 269 269 268 268 271 275 275 276 276 273 272 263 266 271 272 272 273 273 274 274 277 282 283 284 288 288 288 289
260 263 265 267 267 270 272 271 271 271 270 270 271 273 274 272 272 272 274 279 283 279 278 273 268 272 270 267 264 268 269 271 274 275 276 279 281 283 284 285 288 288 286 286
Height
5730 5722 5716 5711 5705 5700 5692 5695 5689 5680 5674 5675 5676 5673 5672 5672 5672 5673 5674 5675 5677 5678 5680 5683 5685 5687 5690 5692 5694 5697 5699 5701 5702 5703 5704 5705 5705 5705 5705 5704 5704 5702 5701 5701
5737 5731 5724 5719 5715 5710 5705 5704 5700 5694 5687 5689 5687 5685 5684 5684 5683 5684 5685 5686 5687 5688 5689 5692 5693 5694 5696 5697 5699 5701 5703 5704 5705 5706 5707 5706 5705 5704 5703 5702 5701 5700 5700 5700
5743 5738 5732 5727 5722 5720 5716 5712 5710 5704 5701 5700 5697 5695 5694 5694 5693 5694 5694 5695 5695 5696 5697 5699 5700 5701 5702 5703 5704 5706 5707 5707 5707 5707 5706 5705 5703 5702 5701 5700 5700 5699 5698 5697
5748 5744 5739 5734 5729 5725 5723 5719 5716 5714 5712 5709 5707 5705 5703 5702 5701 5702 5702 5703 5703 5704 5704 5705 5706 5707 5708 5708 5709 5709 5709 5708 5706 5705 5704 5703 5702 5702 5701 5700 5699 5699 5698 5695
5749 5747 5744 5741 5736 5731 5727 5724 5722 5719 5718 5716 5715 5713 5711 5711 5710 5709 5708 5708 5708 5708 5709 5710 5709 5709 5709 5709 5709 5708 5708 5708 5707 5706 5705 5705 5704 5703 5702 5701 5700 5698 5697 5695
5750 5747 5746 5743 5740 5737 5733 5729 5725 5724 5723 5721 5720 5719 5717 5715 5714 5713 5713 5712 5711 5711 5711 5710 5710 5710 5711 5711 5710 5710 5709 5708 5708 5707 5706 5705 5705 5703 5702 5700 5698 5697 5695 5692
5750 5747 5745 5744 5742 5740 5738 5735 5733 5728 5726 5725 5724 5723 5722 5721 5719 5718 5717 5716 5715 5715 5714 5713 5713 5712 5712 5712 5711 5711 5710 5709 5709 5708 5707 5706 5705 5703 5701 5700 5697 5695 5692 5689
5749 5747 5745 5743 5742 5741 5740 5737 5735 5734 5732 5728 5726 5725 5724 5724 5723 5723 5722 5721 5720 5719 5717 5716 5716 5716 5715 5714 5713 5712 5712 5711 5709 5708 5706 5706 5703 5701 5700 5697 5694 5691 5689 5686
5747 5745 5744 5742 5740 5740 5739 5738 5737 5734 5732 5732 5730 5728 5726 5725 5725 5724 5723 5722 5722 5721 5720 5720 5719 5717 5716 5715 5714 5713 5711 5710 5709 5707 5705 5704 5702 5700 5697 5695 5693 5689 5686 5683
5744 5743 5742 5740 5738 5738 5737 5736 5736 5736 5735 5732 5730 5729 5728 5726 5724 5724 5723 5723 5722 5721 5721 5720 5719 5718 5717 5716 5714 5712 5710 5709 5707 5706 5704 5703 5700 5697 5695 5692 5692 5686 5682 5679
5740 5739 5739 5739 5737 5734 5735 5735 5735 5734 5732 5731 5730 5727 5726 5725 5724 5723 5722 5722 5721 5720 5719 5718 5717 5716 5716 5714 5713 5711 5710 5708 5705 5703 5700 5700 5697 5696 5693 5690 5685 5681 5677 5674
5732 5734 5734 5734 5733 5733 5732 5731 5730 5731 5730 5729 5727 5726 5725 5723 5722 5722 5720 5719 5717 5716 5716 5716 5714 5712 5711 5710 5709 5708 5706 5703 5702 5700 5698 5694 5692 5690 5687 5683 5680 5676 5672 5669
5726 5725 5726 5728 5728 5728 5728 5727 5727 5727 5725 5725 5723 5722 5722 5720 5718 5718 5717 5715 5715 5712 5711 5711 5710 5709 5706 5705 5705 5703 5702 5696 5694 5690 5693 5686 5684 5684 5679 5677 5674 5669 5667 5663
5718 5718 5718 5718 5719 5720 5721 5721 5721 5720 5722 5721 5720 5718 5717 5715 5713 5712 5712 5710 5709 5708 5706 5705 5703 5701 5698 5699 5696 5697 5694 5690 5683 5682 5681 5679 5678 5674 5670 5667 5664 5660 5658 5655
5710 5712 5710 5710 5711 5711 5712 5713 5713 5715 5716 5716 5714 5714 5711 5710 5708 5707 5706 5703 5702 5701 5700 5699 5697 5694 5688 5690 5690 5690 5683 5679 5672 5670 5672 5670 5668 5666 5662 5658 5653 5650 5648 5646
5701 5703 5704 5705 5705 5705 5704 5706 5706 5706 5707 5708 5709 5709 5706 5704 5702 5701 5698 5697 5695 5693 5692 5693 5691 5687 5684 5685 5684 5681 5676 5672 5669 5667 5662 5659 5655 5653 5649 5647 5644 5642 5640 5638
5691 5693 5695 5696 5697 5698 5698 5698 5700 5698 5698 5699 5701 5702 5700 5698 5696 5694 5692 5690 5688 5686 5685 5686 5682 5680 5677 5678 5674 5671 5669 5667 5661 5657 5655 5652 5647 5644 5640 5638 5635 5634 5632 5629
5679 5682 5684 5686 5687 5688 5688 5686 5688 5689 5690 5690 5691 5696 5694 5690 5690 5687 5685 5682 5680 5679 5677 5678 5677 5675 5672 5670 5661 5663 5658 5657 5656 5650 5646 5643 5640 5636 5633 5630 5627 5625 5622 5622
5667 5670 5672 5674 5676 5676 5676 5676 5676 5677 5679 5675 5678 5682 5679 5682 5681 5678 5676 5672 5671 5669 5670 5668 5665 5667 5667 5658 5657 5653 5649 5647 5644 5640 5638 5634 5632 5628 5625 5621 5620 5619 5615 5611
5653 5656 5659 5661 5664 5664 5665 5666 5665 5664 5663 5663 5664 5663 5664 5666 5664 5663 5664 5660 5659 5658 5657 5654 5655 5659 5654 5650 5646 5644 5640 5636 5633 5631 5628 5625 5621 5618 5615 5612 5609 5607 5606 5603
5637 5640 5643 5646 5648 5651 5652 5651 5652 5652 5650 5650 5649 5647 5646 5645 5647 5647 5646 5645 5644 5643 5644 5641 5641 5642 5640 5636 5632 5628 5627 5625 5622 5619 5616 5614 5611 5607 5602 5601 5599 5596 5594 5592
5622 5625 5626 5629 5632 5633 5635 5636 5637 5637 5634 5634 5631 5630 5629 5628 5626 5626 5626 5625 5627 5627 5628 5627 5625 5625 5621 5618 5616 5613 5610 5608 5608 5605 5603 5602 5600 5596 5593 5589 5586 5583 5580 5577
5599 5604 5609 5613 5613 5615 5617 5618 5618 5614 5611 5610 5609 5610 5609 5608 5608 5606 5605 5605 5606 5607 5608 5609 5610 5606 5603 5600 5598 5596 5595 5593 5591 5590 5588 5587 5585 5584 5581 5578 5575 5572 5569 5565
5577 5582 5591 5594 5598 5597 5599 5598 5595 5592 5588 5586 5586 5587 5589 5587 5586 5584 5583 5583 5585 5585 5588 5589 5589 5589 5585 5583 5580 5579 5579 5578 5577 5576 5575 5574 5572 5570 5568 5565 5564 5560 5557 5554
5552 5559 5571 5581 5580 5579 5577 5574 5572 5570 5568 5567 5565 5566 5568 5566 5565 5564 5564 5564 5567 5569 5572 5572 5571 5571 5570 5567 5566 5564 5563 5563 5562 5562 5561 5560 5557 5555 5553 5552 5550 5547 5543 5540
5530 5543 5558 5562 5558 5560 5558 5556 5555 5551 5548 5544 5544 5545 5544 5547 5546 5546 5549 5549 5552 5556 5554 5554 5553 5550 5549 5550 5550 5550 5548 5546 5547 5547 5546 5545 5544 5543 5540 5537 5536 5533 5530 5527
5514 5535 5539 5538 5537 5539 5538 5536 5535 5532 5529 5527 5524 5525 5527 5523 5520 5525 5529 5535 5541 5539 5539 5537 5535 5535 5534 5533 5534 5533 5531 5532 5533 5533 5533 5532 5531 5530 5527 5524 5522 5520 5517 5514